Flag for Uruguay Weather past 2 weeks in Minas, Uruguay

Now
64 °F

Sunny.


Feels Like: 64 °F
Forecast: 59 / 85 °F
Wind: 8 mph from Northeast

Location: Capitan Corbeta

Current Time: Oct 26, 2014 at 8:04:04 AM

Latest Report: Oct 26, 2014 at 7:00 AM


Visibility: 10 mi

Pressure: 29.89 "Hg

Humidity: 88%

Dew point: 61 °F

Location of MinasLocation

Historic Weather in Minas — Graph

°F

Minas temperature yesterday

Maximum temperature yesterday: 75 °F (at 5:00 PM)
Minimum temperature yesterday: 61 °F (at 7:00 AM)
Average temperature yesterday: 68 °F

Past Weeks' High & Low Weather Summary

 TemperatureHumidityPressure
High86 °F (Oct 22, 3:00 PM)100% (Oct 16, 9:00 AM)30.18 "Hg (Oct 16, 9:00 AM)
Low48 °F (Oct 13, 4:00 AM)29% (Oct 22, 5:00 PM)29.68 "Hg (Oct 18, 7:00 PM)
Average65 °F74%29.98 "Hg
* Reported Oct 11 7:00 AM — Oct 26 7:00 AM, Minas, Weather by CustomWeather, © 2014

Note: Actual official high and low records may vary slightly from our data, if they occured in-between our weather recording intervals... More about our weather records

Advertising

Minas weather history for previous 24 hours

 ConditionsComfort  
Time TempWeatherWind HumidityBarometerVisibility
7:00 AM
Oct 26
64 °FSunny.8 mph88%29.89 "Hg10 mi
6:00 AM64 °FClear.8 mph88%29.89 "Hg10 mi
5:00 AM64 °FClear.5 mph88%29.89 "Hg10 mi
4:00 AM66 °FClear.10 mph88%29.92 "Hg10 mi
3:00 AM66 °FClear.5 mph88%29.92 "Hg10 mi
2:00 AM66 °FClear.8 mph88%29.92 "Hg10 mi
1:00 AM68 °FClear.9 mph88%29.92 "Hg10 mi
12:00 AM66 °FClear.10 mph88%29.92 "Hg10 mi
11:00 PM
Oct 25
66 °FClear.7 mph88%29.92 "Hg10 mi
10:00 PM68 °FClear.9 mph78%29.92 "Hg10 mi
9:00 PM68 °FClear.5 mph78%29.92 "Hg10 mi
8:00 PM70 °FSunny.5 mph73%29.92 "Hg10 mi
7:00 PM73 °FPassing clouds.5 mph65%29.92 "HgN/A
6:00 PM73 °FPassing clouds.7 mph61%30.01 "HgN/A
5:00 PM75 °FScattered clouds.9 mph61%29.95 "HgN/A
4:00 PM72 °FScattered clouds.14 mph69%29.95 "HgN/A
3:00 PM72 °FScattered clouds.14 mph69%29.98 "HgN/A
1:00 PM72 °FScattered clouds.14 mph73%29.98 "HgN/A
12:00 PM70 °FSunny.9 mph73%30.01 "Hg10 mi
11:00 AM70 °FSunny.6 mph73%30.01 "Hg10 mi
10:00 AM70 °FSunny.No wind73%29.98 "Hg10 mi
9:00 AM66 °FClear.No wind83%29.98 "Hg5 mi
8:00 AM63 °FClear.No wind94%29.98 "Hg4 mi
Weather by CustomWeather, © 2014

See weather overviewHow to use our weather pages